Location: Unspecified
(0.0000°N, 0.0000°E)
Time: 01:00:22
(UTC+00:00)

Vanguard 3 - Pass Details

Date: 14 December 2025
Orbit: 507 x 3205 km, 33.4° (Epoch: 19 May)

Event Time Altitude Azimuth Distance (km) Brightness Sun altitude
Rises 06:27:44 0° 224° (SW) 6,728 11.6 7.6°
Reaches altitude 10° 06:32:17 10° 218° (SW) 5,914 11.4 8.6°
Maximum altitude 06:50:51 50° 147° (SSE) 3,687 11.3 12.9°
Drops below altitude 10° 07:06:51 10° 77° (ENE) 5,218 12.2 16.5°
Sets 07:10:29 0° 71° (ENE) 5,927 12.3 17.4°
